| time (UTC) | temp F | wind direction | speed MPH | gust MPH | rain 1hr in | rain 24hr in | rain mn in | humidity % | barometer mb |
| 20260507150408 | 70 | 248 | 1.0 | 1.0 | 0.00 | 0.00 | 0.00 | 63 | 1010.0 |
| 20260507145910 | 69 | 292 | 6.0 | 6.0 | 0.00 | 0.00 | 0.00 | 61 | 1010.0 |
| 20260507145408 | 70 | 270 | 4.0 | 4.0 | 0.00 | 0.00 | 0.00 | 60 | 1010.0 |
| 20260507144909 | 70 | 292 | 6.0 | 6.0 | 0.00 | 0.00 | 0.00 | 59 | 1010.0 |
| 20260507144409 | 70 | 292 | 4.0 | 4.0 | 0.00 | 0.00 | 0.00 | 57 | 1010.0 |
| 20260507143908 | 70 | 248 | 2.0 | 2.0 | 0.00 | 0.00 | 0.00 | 53 | 1010.0 |
| 20260507143409 | 70 | 202 | 6.0 | 6.0 | 0.00 | 0.00 | 0.00 | 54 | 1010.0 |
| 20260507142908 | 71 | 225 | 7.0 | 7.0 | 0.00 | 0.00 | 0.00 | 56 | 1010.0 |
| 20260507142409 | 71 | 225 | 6.0 | 7.0 | 0.00 | 0.00 | 0.00 | 54 | 1010.0 |
| 20260507141910 | 71 | 248 | 8.0 | 9.0 | 0.00 | 0.00 | 0.00 | 46 | 1010.0 |
| 20260507141409 | 71 | 248 | 9.0 | 11.0 | 0.00 | 0.00 | 0.00 | 45 | 1010.0 |
| 20260507140909 | 71 | 225 | 6.0 | 6.0 | 0.00 | 0.00 | 0.00 | 45 | 1010.0 |
| 20260507140409 | 71 | 225 | 6.0 | 6.0 | 0.00 | 0.00 | 0.00 | 51 | 1010.0 |
| 20260507135909 | 72 | 248 | 8.0 | 9.0 | 0.00 | 0.00 | 0.00 | 45 | 1010.0 |
| 20260507135410 | 72 | 248 | 6.0 | 6.0 | 0.00 | 0.00 | 0.00 | 46 | 1010.0 |
| 20260507134909 | 72 | 225 | 8.0 | 9.0 | 0.00 | 0.00 | 0.00 | 47 | 1010.0 |
| 20260507134409 | 72 | 292 | 6.0 | 6.0 | 0.00 | 0.00 | 0.00 | 54 | 1010.0 |
| 20260507133908 | 71 | 202 | 6.0 | 7.0 | 0.00 | 0.00 | 0.00 | 53 | 1010.0 |
| 20260507133408 | 71 | 202 | 7.0 | 7.0 | 0.00 | 0.00 | 0.00 | 54 | 1010.0 |
| 20260507132909 | 72 | 225 | 8.0 | 9.0 | 0.00 | 0.00 | 0.00 | 56 | 1010.0 |
| 20260507132409 | 72 | 202 | 8.0 | 10.0 | 0.00 | 0.00 | 0.00 | 55 | 1010.0 |
| 20260507131909 | 73 | 225 | 7.0 | 7.0 | 0.00 | 0.00 | 0.00 | 52 | 1010.0 |
| 20260507131409 | 73 | 225 | 6.0 | 6.0 | 0.00 | 0.00 | 0.00 | 49 | 1010.0 |
| 20260507130908 | 73 | 180 | 5.0 | 6.0 | 0.00 | 0.00 | 0.00 | 43 | 1010.0 |
| 20260507130408 | 73 | 202 | 6.0 | 6.0 | 0.00 | 0.00 | 0.00 | 46 | 1010.0 |
| 20260507125909 | 73 | 202 | 6.0 | 6.0 | 0.00 | 0.00 | 0.00 | 45 | 1010.0 |
| 20260507125409 | 73 | 248 | 8.0 | 9.0 | 0.00 | 0.00 | 0.00 | 46 | 1010.0 |
| 20260507124908 | 73 | 202 | 8.0 | 8.0 | 0.00 | 0.00 | 0.00 | 45 | 1010.0 |
| 20260507124408 | 74 | 248 | 6.0 | 6.0 | 0.00 | 0.00 | 0.00 | 44 | 1010.0 |
| 20260507123909 | 75 | 248 | 6.0 | 6.0 | 0.00 | 0.00 | 0.00 | 42 | 1010.0 |
| 20260507123408 | 77 | 248 | 8.0 | 9.0 | 0.00 | 0.00 | 0.00 | 37 | 1010.0 |
| 20260507122909 | 77 | 180 | 5.0 | 6.0 | 0.00 | 0.00 | 0.00 | 33 | 1009.0 |
| 20260507122408 | 77 | 248 | 3.0 | 3.0 | 0.00 | 0.00 | 0.00 | 35 | 1009.0 |
| 20260507121909 | 77 | 135 | 3.0 | 4.0 | 0.00 | 0.00 | 0.00 | 36 | 1009.0 |
| 20260507121408 | 78 | 68 | 6.0 | 6.0 | 0.00 | 0.00 | 0.00 | 37 | 1010.0 |
| 20260507120908 | 79 | 68 | 4.0 | 4.0 | 0.00 | 0.00 | 0.00 | 37 | 1010.0 |
| 20260507120409 | 79 | 112 | 3.0 | 3.0 | 0.00 | 0.00 | 0.00 | 33 | 1010.0 |
| 20260507115908 | 79 | 112 | 1.0 | 1.0 | 0.00 | 0.00 | 0.00 | 35 | 1010.0 |
| 20260507115409 | 78 | 112 | 5.0 | 5.0 | 0.00 | 0.00 | 0.00 | 33 | 1010.0 |
| 20260507114908 | 77 | 22 | 0.0 | 0.0 | 0.00 | 0.00 | 0.00 | 33 | 1010.0 |
| 20260507114408 | 76 | 68 | 0.0 | 0.0 | 0.00 | 0.00 | 0.00 | 34 | 1010.0 |
| 20260507113908 | 75 | 112 | 2.0 | 2.0 | 0.00 | 0.00 | 0.00 | 31 | 1010.0 |
| 20260507113408 | 75 | 112 | 6.0 | 6.0 | 0.00 | 0.00 | 0.00 | 29 | 1010.0 |
| 20260507112909 | 75 | 68 | 5.0 | 5.0 | 0.00 | 0.00 | 0.00 | 25 | 1010.0 |
| 20260507112409 | 75 | 68 | 5.0 | 5.0 | 0.00 | 0.00 | 0.00 | 34 | 1010.0 |
| 20260507111909 | 74 | 45 | 1.0 | 1.0 | 0.00 | 0.00 | 0.00 | 36 | 1010.0 |
| 20260507111409 | 73 | 90 | 4.0 | 5.0 | 0.00 | 0.00 | 0.00 | 35 | 1010.0 |
| 20260507110909 | 73 | 68 | 6.0 | 7.0 | 0.00 | 0.00 | 0.00 | 38 | 1010.0 |
| 20260507110409 | 73 | 90 | 4.0 | 5.0 | 0.00 | 0.00 | 0.00 | 37 | 1010.0 |
| 20260507105909 | 73 | 68 | 6.0 | 7.0 | 0.00 | 0.00 | 0.00 | 38 | 1010.0 |
| 20260507105408 | 72 | 112 | 0.0 | 0.0 | 0.00 | 0.00 | 0.00 | 37 | 1010.0 |
| 20260507104912 | 72 | 112 | 4.0 | 4.0 | 0.00 | 0.00 | 0.00 | 38 | 1010.0 |
| 20260507104409 | 73 | 68 | 7.0 | 7.0 | 0.00 | 0.00 | 0.00 | 38 | 1010.0 |
| 20260507103908 | 73 | 90 | 6.0 | 6.0 | 0.00 | 0.00 | 0.00 | 36 | 1010.0 |
| 20260507102955 | 73 | 112 | 5.0 | 5.0 | 0.00 | 0.00 | 0.00 | 33 | 1011.0 |
| 20260507102408 | 73 | 90 | 6.0 | 6.0 | 0.00 | 0.00 | 0.00 | 37 | 1011.0 |
| 20260507101909 | 73 | 68 | 5.0 | 5.0 | 0.00 | 0.00 | 0.00 | 38 | 1011.0 |
| 20260507101409 | 72 | 45 | 4.0 | 5.0 | 0.00 | 0.00 | 0.00 | 42 | 1011.0 |
| 20260507100908 | 72 | 22 | 0.0 | 0.0 | 0.00 | 0.00 | 0.00 | 42 | 1011.0 |
| 20260507100409 | 71 | 45 | 1.0 | 1.0 | 0.00 | 0.00 | 0.00 | 45 | 1011.0 |
| 20260507095909 | 71 | 112 | 3.0 | 3.0 | 0.00 | 0.00 | 0.00 | 43 | 1011.0 |
| 20260507095409 | 71 | 112 | 2.0 | 2.0 | 0.00 | 0.00 | 0.00 | 43 | 1011.0 |
| 20260507094909 | 71 | 68 | 2.0 | 2.0 | 0.00 | 0.00 | 0.00 | 43 | 1011.0 |
| 20260507094409 | 71 | 68 | 5.0 | 5.0 | 0.00 | 0.00 | 0.00 | 42 | 1011.0 |
| 20260507093908 | 71 | 68 | 5.0 | 5.0 | 0.00 | 0.00 | 0.00 | 42 | 1011.0 |
| 20260507093410 | 71 | 45 | 5.0 | 5.0 | 0.00 | 0.00 | 0.00 | 39 | 1011.0 |
| 20260507092908 | 70 | 68 | 6.0 | 6.0 | 0.00 | 0.00 | 0.00 | 41 | 1011.0 |
| 20260507092409 | 70 | 68 | 4.0 | 5.0 | 0.00 | 0.00 | 0.00 | 43 | 1011.0 |
| 20260507091908 | 70 | 68 | 2.0 | 2.0 | 0.00 | 0.00 | 0.00 | 43 | 1011.0 |
| 20260507091409 | 71 | 68 | 4.0 | 4.0 | 0.00 | 0.00 | 0.00 | 43 | 1010.0 |
| 20260507090908 | 71 | 68 | 4.0 | 5.0 | 0.00 | 0.00 | 0.00 | 40 | 1010.0 |
| 20260507090408 | 71 | 112 | 2.0 | 2.0 | 0.00 | 0.00 | 0.00 | 42 | 1010.0 |
| 20260507085909 | 70 | 68 | 3.0 | 4.0 | 0.00 | 0.00 | 0.00 | 44 | 1011.0 |
| 20260507085409 | 70 | 68 | 5.0 | 5.0 | 0.00 | 0.00 | 0.00 | 45 | 1011.0 |
| 20260507084908 | 70 | 22 | 4.0 | 4.0 | 0.00 | 0.00 | 0.00 | 44 | 1011.0 |
| 20260507084409 | 70 | 68 | 3.0 | 3.0 | 0.00 | 0.00 | 0.00 | 47 | 1011.0 |
| 20260507083908 | 70 | 68 | 2.0 | 2.0 | 0.00 | 0.00 | 0.00 | 49 | 1011.0 |
| 20260507083408 | 70 | 0 | 4.0 | 5.0 | 0.00 | 0.00 | 0.00 | 49 | 1011.0 |
| 20260507082908 | 71 | 68 | 3.0 | 4.0 | 0.00 | 0.00 | 0.00 | 49 | 1011.0 |
| 20260507082410 | 72 | 90 | 3.0 | 3.0 | 0.00 | 0.00 | 0.00 | 46 | 1011.0 |
| 20260507081911 | 72 | 68 | 3.0 | 3.0 | 0.00 | 0.00 | 0.00 | 43 | 1011.0 |
| 20260507081408 | 72 | 68 | 5.0 | 5.0 | 0.00 | 0.00 | 0.00 | 44 | 1011.0 |
| 20260507080909 | 71 | 270 | 2.0 | 2.0 | 0.00 | 0.00 | 0.00 | 43 | 1011.0 |
| 20260507080408 | 70 | 0 | 2.0 | 2.0 | 0.00 | 0.00 | 0.00 | 47 | 1011.0 |
| 20260507075908 | 69 | 225 | 0.0 | 0.0 | 0.00 | 0.00 | 0.00 | 51 | 1011.0 |
| 20260507075408 | 68 | 112 | 2.0 | 2.0 | 0.00 | 0.00 | 0.00 | 51 | 1011.0 |
| 20260507074912 | 67 | 90 | 3.0 | 3.0 | 0.00 | 0.00 | 0.00 | 54 | 1011.0 |
| 20260507074409 | 66 | 90 | 1.0 | 1.0 | 0.00 | 0.00 | 0.00 | 58 | 1011.0 |
| 20260507073908 | 65 | 68 | 3.0 | 4.0 | 0.00 | 0.00 | 0.00 | 63 | 1011.0 |
| 20260507073408 | 65 | 68 | 5.0 | 5.0 | 0.00 | 0.00 | 0.00 | 63 | 1011.0 |
| 20260507072908 | 65 | 68 | 4.0 | 4.0 | 0.00 | 0.00 | 0.00 | 69 | 1010.0 |
| 20260507072408 | 65 | 112 | 2.0 | 2.0 | 0.00 | 0.00 | 0.00 | 69 | 1010.0 |
| 20260507071908 | 64 | 68 | 4.0 | 5.0 | 0.00 | 0.00 | 0.00 | 69 | 1010.0 |
| 20260507071409 | 64 | 68 | 7.0 | 8.0 | 0.00 | 0.00 | 0.00 | 72 | 1011.0 |
| 20260507070908 | 64 | 68 | 5.0 | 5.0 | 0.00 | 0.00 | 0.00 | 73 | 1011.0 |
| 20260507070409 | 65 | 68 | 6.0 | 6.0 | 0.00 | 0.00 | 0.00 | 72 | 1011.0 |
| 20260507065909 | 64 | 112 | 7.0 | 8.0 | 0.00 | 0.00 | 0.00 | 72 | 1011.0 |
| 20260507065408 | 64 | 68 | 4.0 | 4.0 | 0.00 | 0.00 | 0.00 | 72 | 1011.0 |
| 20260507064910 | 64 | 68 | 6.0 | 6.0 | 0.00 | 0.00 | 0.00 | 73 | 1011.0 |
| 20260507064408 | 64 | 68 | 7.0 | 7.0 | 0.00 | 0.00 | 0.00 | 71 | 1011.0 |
| 20260507063908 | 65 | 90 | 4.0 | 5.0 | 0.00 | 0.00 | 0.00 | 71 | 1011.0 |
| 20260507063409 | 65 | 90 | 7.0 | 8.0 | 0.00 | 0.00 | 0.00 | 69 | 1011.0 |
| 20260507062908 | 65 | 68 | 2.0 | 2.0 | 0.00 | 0.00 | 0.00 | 68 | 1011.0 |
| 20260507062408 | 65 | 68 | 0.0 | 0.0 | 0.00 | 0.00 | 0.00 | 68 | 1011.0 |
| 20260507061908 | 64 | 0 | 1.0 | 1.0 | 0.00 | 0.00 | 0.00 | 70 | 1011.0 |
| 20260507061410 | 64 | 315 | 0.0 | 0.0 | 0.00 | 0.00 | 0.00 | 70 | 1011.0 |
| 20260507060908 | 64 | 338 | 2.0 | 2.0 | 0.00 | 0.00 | 0.00 | 70 | 1011.0 |
| 20260507060409 | 63 | 315 | 0.0 | 0.0 | 0.00 | 0.00 | 0.00 | 71 | 1011.0 |
| 20260507055909 | 64 | 292 | 1.0 | 1.0 | 0.00 | 0.00 | 0.00 | 72 | 1011.0 |
| 20260507055408 | 64 | 315 | 2.0 | 2.0 | 0.00 | 0.00 | 0.00 | 71 | 1011.0 |
| 20260507054908 | 64 | 338 | 1.0 | 1.0 | 0.00 | 0.00 | 0.00 | 69 | 1011.0 |
| 20260507054412 | 63 | 45 | 0.0 | 0.0 | 0.00 | 0.00 | 0.00 | 68 | 1011.0 |
| 20260507053908 | 63 | 45 | 0.0 | 0.0 | 0.00 | 0.00 | 0.00 | 68 | 1011.0 |
| 20260507053408 | 63 | 45 | 0.0 | 0.0 | 0.00 | 0.00 | 0.00 | 68 | 1011.0 |
| 20260507052909 | 63 | 45 | 0.0 | 0.0 | 0.00 | 0.00 | 0.00 | 69 | 1010.0 |
| 20260507052408 | 63 | 45 | 1.0 | 1.0 | 0.00 | 0.00 | 0.00 | 70 | 1010.0 |
| 20260507051908 | 63 | 45 | 2.0 | 2.0 | 0.00 | 0.00 | 0.00 | 68 | 1010.0 |
| 20260507051409 | 62 | 45 | 0.0 | 0.0 | 0.00 | 0.00 | 0.00 | 68 | 1010.0 |
| 20260507050908 | 62 | 45 | 0.0 | 0.0 | 0.00 | 0.00 | 0.00 | 69 | 1010.0 |
| 20260507050408 | 61 | 45 | 2.0 | 2.0 | 0.00 | 0.00 | 0.00 | 68 | 1010.0 |
| 20260507045910 | 61 | 90 | 1.0 | 1.0 | 0.00 | 0.00 | 0.00 | 69 | 1010.0 |
| 20260507045408 | 61 | 68 | 4.0 | 5.0 | 0.00 | 0.00 | 0.00 | 68 | 1010.0 |
| 20260507044909 | 61 | 45 | 0.0 | 0.0 | 0.00 | 0.00 | 0.00 | 69 | 1010.0 |
| 20260507044408 | 61 | 45 | 0.0 | 0.0 | 0.00 | 0.00 | 0.00 | 69 | 1010.0 |
| 20260507043909 | 60 | 68 | 0.0 | 0.0 | 0.00 | 0.00 | 0.00 | 70 | 1010.0 |
| 20260507043408 | 60 | 68 | 4.0 | 4.0 | 0.00 | 0.00 | 0.00 | 71 | 1010.0 |
| 20260507042909 | 59 | 112 | 2.0 | 2.0 | 0.00 | 0.00 | 0.00 | 72 | 1009.0 |
| 20260507042408 | 59 | 90 | 2.0 | 2.0 | 0.00 | 0.00 | 0.00 | 73 | 1009.0 |
| 20260507041908 | 59 | 68 | 3.0 | 3.0 | 0.00 | 0.00 | 0.00 | 74 | 1009.0 |
| 20260507041408 | 59 | 68 | 4.0 | 4.0 | 0.00 | 0.00 | 0.00 | 75 | 1009.0 |
| 20260507040908 | 59 | 45 | 2.0 | 2.0 | 0.00 | 0.00 | 0.00 | 76 | 1009.0 |
| 20260507040409 | 59 | 68 | 0.0 | 0.0 | 0.00 | 0.00 | 0.00 | 77 | 1009.0 |
| 20260507035908 | 59 | 68 | 4.0 | 5.0 | 0.00 | 0.00 | 0.00 | 77 | 1009.0 |
| 20260507035409 | 59 | 68 | 4.0 | 5.0 | 0.00 | 0.00 | 0.00 | 77 | 1009.0 |
| 20260507034909 | 59 | 68 | 2.0 | 2.0 | 0.00 | 0.00 | 0.00 | 76 | 1009.0 |
| 20260507034408 | 59 | 68 | 3.0 | 3.0 | 0.00 | 0.00 | 0.00 | 76 | 1009.0 |
| 20260507033908 | 59 | 68 | 5.0 | 5.0 | 0.00 | 0.00 | 0.00 | 76 | 1009.0 |
| 20260507033409 | 59 | 68 | 6.0 | 6.0 | 0.00 | 0.00 | 0.00 | 76 | 1009.0 |
| 20260507032909 | 59 | 68 | 6.0 | 6.0 | 0.00 | 0.00 | 0.00 | 75 | 1009.0 |
| 20260507032410 | 59 | 68 | 5.0 | 5.0 | 0.00 | 0.00 | 0.00 | 75 | 1009.0 |
| 20260507031909 | 59 | 68 | 5.0 | 5.0 | 0.00 | 0.00 | 0.00 | 75 | 1009.0 |
| 20260507031409 | 60 | 68 | 5.0 | 5.0 | 0.00 | 0.00 | 0.00 | 75 | 1009.0 |
| 20260507030908 | 60 | 68 | 3.0 | 3.0 | 0.00 | 0.00 | 0.00 | 75 | 1009.0 |
| 20260507030409 | 60 | 68 | 5.0 | 5.0 | 0.00 | 0.00 | 0.00 | 75 | 1009.0 |
| 20260507025908 | 60 | 68 | 3.0 | 3.0 | 0.00 | 0.00 | 0.00 | 74 | 1009.0 |
| 20260507025408 | 60 | 68 | 6.0 | 6.0 | 0.00 | 0.00 | 0.00 | 74 | 1009.0 |
| 20260507024909 | 59 | 68 | 6.0 | 6.0 | 0.00 | 0.00 | 0.00 | 75 | 1009.0 |
| 20260507024409 | 59 | 68 | 5.0 | 5.0 | 0.00 | 0.00 | 0.00 | 76 | 1009.0 |
| 20260507023908 | 59 | 68 | 3.0 | 4.0 | 0.00 | 0.00 | 0.00 | 79 | 1009.0 |
| 20260507023408 | 59 | 68 | 6.0 | 6.0 | 0.00 | 0.00 | 0.00 | 80 | 1009.0 |
| 20260507022909 | 59 | 45 | 4.0 | 4.0 | 0.00 | 0.00 | 0.00 | 83 | 1009.0 |
| 20260507022408 | 59 | 68 | 5.0 | 5.0 | 0.00 | 0.00 | 0.00 | 83 | 1009.0 |
| 20260507021909 | 59 | 90 | 3.0 | 3.0 | 0.00 | 0.00 | 0.00 | 83 | 1009.0 |
| 20260507021408 | 60 | 68 | 5.0 | 5.0 | 0.00 | 0.00 | 0.00 | 83 | 1010.0 |
| 20260507020908 | 60 | 68 | 4.0 | 4.0 | 0.00 | 0.00 | 0.00 | 82 | 1010.0 |
| 20260507020409 | 60 | 90 | 3.0 | 3.0 | 0.00 | 0.00 | 0.00 | 82 | 1010.0 |
| 20260507015910 | 60 | 68 | 5.0 | 5.0 | 0.00 | 0.00 | 0.00 | 81 | 1010.0 |
| 20260507015408 | 60 | 68 | 2.0 | 2.0 | 0.00 | 0.00 | 0.00 | 81 | 1010.0 |
| 20260507014909 | 60 | 68 | 6.0 | 6.0 | 0.00 | 0.00 | 0.00 | 80 | 1010.0 |
| 20260507014408 | 60 | 68 | 4.0 | 5.0 | 0.00 | 0.00 | 0.00 | 79 | 1010.0 |
| 20260507013908 | 60 | 68 | 2.0 | 2.0 | 0.00 | 0.00 | 0.00 | 77 | 1010.0 |
| 20260507013409 | 60 | 68 | 7.0 | 7.0 | 0.00 | 0.00 | 0.00 | 77 | 1010.0 |
| 20260507012909 | 60 | 68 | 4.0 | 5.0 | 0.00 | 0.00 | 0.00 | 76 | 1010.0 |
| 20260507012408 | 60 | 68 | 3.0 | 3.0 | 0.00 | 0.00 | 0.00 | 76 | 1010.0 |
| 20260507011908 | 59 | 45 | 5.0 | 5.0 | 0.00 | 0.00 | 0.00 | 76 | 1010.0 |
| 20260507011409 | 59 | 68 | 2.0 | 2.0 | 0.00 | 0.00 | 0.00 | 77 | 1010.0 |
| 20260507010908 | 59 | 45 | 3.0 | 3.0 | 0.00 | 0.00 | 0.00 | 78 | 1010.0 |
| 20260507010410 | 59 | 90 | 3.0 | 3.0 | 0.00 | 0.00 | 0.00 | 80 | 1010.0 |
| 20260507005908 | 59 | 45 | 5.0 | 5.0 | 0.00 | 0.00 | 0.00 | 82 | 1010.0 |
| 20260507005409 | 60 | 22 | 0.0 | 0.0 | 0.00 | 0.00 | 0.00 | 83 | 1010.0 |
| 20260507004910 | 60 | 68 | 6.0 | 6.0 | 0.00 | 0.00 | 0.00 | 84 | 1010.0 |
| 20260507004409 | 60 | 68 | 4.0 | 4.0 | 0.00 | 0.00 | 0.00 | 84 | 1010.0 |
| 20260507003910 | 60 | 68 | 5.0 | 5.0 | 0.00 | 0.00 | 0.00 | 84 | 1010.0 |
| 20260507003409 | 60 | 68 | 5.0 | 5.0 | 0.00 | 0.00 | 0.00 | 84 | 1010.0 |
| 20260507002908 | 60 | 68 | 3.0 | 3.0 | 0.00 | 0.00 | 0.00 | 85 | 1010.0 |
| 20260507002408 | 60 | 90 | 3.0 | 4.0 | 0.00 | 0.00 | 0.00 | 85 | 1010.0 |
| 20260507001908 | 60 | 68 | 4.0 | 4.0 | 0.00 | 0.00 | 0.00 | 86 | 1010.0 |
| 20260507001408 | 60 | 68 | 2.0 | 2.0 | 0.00 | 0.00 | 0.00 | 86 | 1010.0 |
| 20260507000909 | 59 | 45 | 4.0 | 4.0 | 0.00 | 0.00 | 0.00 | 86 | 1010.0 |
| 20260507000408 | 59 | 45 | 1.0 | 1.0 | 0.00 | 0.00 | 0.00 | 86 | 1010.0 |
| 20260506235909 | 59 | 68 | 1.0 | 1.0 | 0.00 | 0.00 | 0.00 | 86 | 1010.0 |
| 20260506235408 | 59 | 68 | 3.0 | 3.0 | 0.00 | 0.00 | 0.00 | 86 | 1010.0 |
| 20260506234908 | 59 | 45 | 2.0 | 2.0 | 0.00 | 0.00 | 0.00 | 86 | 1010.0 |
| 20260506234408 | 59 | 68 | 3.0 | 3.0 | 0.00 | 0.00 | 0.00 | 87 | 1010.0 |
| 20260506233909 | 59 | 68 | 2.0 | 2.0 | 0.00 | 0.00 | 0.00 | 87 | 1010.0 |
| 20260506233409 | 59 | 22 | 3.0 | 4.0 | 0.00 | 0.00 | 0.00 | 88 | 1010.0 |
| 20260506232908 | 59 | 45 | 3.0 | 3.0 | 0.00 | 0.00 | 0.00 | 89 | 1010.0 |
| 20260506232409 | 59 | 45 | 3.0 | 3.0 | 0.00 | 0.00 | 0.00 | 90 | 1010.0 |
| 20260506231908 | 59 | 45 | 2.0 | 2.0 | 0.00 | 0.00 | 0.00 | 90 | 1010.0 |
| 20260506231408 | 59 | 45 | 2.0 | 2.0 | 0.00 | 0.00 | 0.00 | 91 | 1010.0 |
| 20260506230908 | 59 | 45 | 1.0 | 1.0 | 0.00 | 0.00 | 0.00 | 91 | 1010.0 |
| 20260506230408 | 59 | 45 | 0.0 | 0.0 | 0.00 | 0.00 | 0.00 | 91 | 1010.0 |
| 20260506225909 | 59 | 68 | 0.0 | 0.0 | 0.00 | 0.00 | 0.00 | 91 | 1010.0 |
| 20260506225410 | 59 | 45 | 0.0 | 0.0 | 0.00 | 0.00 | 0.00 | 91 | 1010.0 |
| 20260506224909 | 59 | 338 | 0.0 | 0.0 | 0.00 | 0.00 | 0.00 | 91 | 1010.0 |
| 20260506224409 | 60 | 338 | 2.0 | 2.0 | 0.00 | 0.00 | 0.00 | 90 | 1010.0 |
| 20260506223908 | 60 | 338 | 3.0 | 3.0 | 0.00 | 0.00 | 0.00 | 90 | 1010.0 |
| 20260506223409 | 60 | 22 | 2.0 | 2.0 | 0.00 | 0.00 | 0.00 | 90 | 1010.0 |
| 20260506222908 | 60 | 22 | 3.0 | 4.0 | 0.00 | 0.00 | 0.00 | 90 | 1010.0 |
| 20260506222409 | 60 | 45 | 2.0 | 2.0 | 0.00 | 0.00 | 0.00 | 90 | 1010.0 |
| 20260506221908 | 60 | 68 | 3.0 | 3.0 | 0.00 | 0.00 | 0.00 | 89 | 1010.0 |
| 20260506221408 | 60 | 68 | 3.0 | 3.0 | 0.00 | 0.00 | 0.00 | 89 | 1010.0 |
| 20260506220908 | 60 | 68 | 4.0 | 4.0 | 0.00 | 0.00 | 0.00 | 89 | 1010.0 |
| 20260506220409 | 60 | 22 | 3.0 | 4.0 | 0.00 | 0.00 | 0.00 | 88 | 1010.0 |
| 20260506215909 | 60 | 45 | 2.0 | 2.0 | 0.00 | 0.00 | 0.00 | 88 | 1011.0 |
| 20260506215408 | 60 | 68 | 2.0 | 2.0 | 0.00 | 0.00 | 0.00 | 88 | 1011.0 |
| 20260506214908 | 60 | 45 | 0.0 | 0.0 | 0.00 | 0.00 | 0.00 | 87 | 1011.0 |
| 20260506214410 | 60 | 45 | 1.0 | 1.0 | 0.00 | 0.00 | 0.00 | 87 | 1011.0 |
| 20260506213908 | 60 | 45 | 2.0 | 2.0 | 0.00 | 0.00 | 0.00 | 87 | 1011.0 |
| 20260506213408 | 60 | 45 | 2.0 | 2.0 | 0.00 | 0.00 | 0.00 | 86 | 1011.0 |
| 20260506212908 | 61 | 22 | 2.0 | 2.0 | 0.00 | 0.00 | 0.00 | 86 | 1011.0 |
| 20260506212408 | 61 | 248 | 0.0 | 0.0 | 0.00 | 0.00 | 0.00 | 87 | 1011.0 |
| 20260506211908 | 61 | 248 | 0.0 | 0.0 | 0.00 | 0.00 | 0.00 | 86 | 1011.0 |
| 20260506211408 | 61 | 248 | 0.0 | 0.0 | 0.00 | 0.00 | 0.00 | 86 | 1011.0 |
| 20260506210909 | 60 | 248 | 0.0 | 0.0 | 0.00 | 0.00 | 0.00 | 86 | 1011.0 |
| 20260506210408 | 61 | 248 | 0.0 | 0.0 | 0.00 | 0.00 | 0.00 | 86 | 1011.0 |
| 20260506205908 | 61 | 248 | 0.0 | 0.0 | 0.00 | 0.00 | 0.00 | 86 | 1011.0 |
| 20260506205408 | 61 | 248 | 0.0 | 0.0 | 0.00 | 0.00 | 0.00 | 86 | 1011.0 |
| 20260506204914 | 61 | 248 | 0.0 | 0.0 | 0.00 | 0.00 | 0.00 | 85 | 1011.0 |
| 20260506204409 | 61 | 248 | 0.0 | 0.0 | 0.00 | 0.00 | 0.00 | 85 | 1011.0 |
| 20260506203908 | 61 | 248 | 1.0 | 1.0 | 0.00 | 0.00 | 0.00 | 85 | 1011.0 |
| 20260506203408 | 61 | 248 | 0.0 | 0.0 | 0.00 | 0.00 | 0.00 | 85 | 1011.0 |
| 20260506202908 | 61 | 248 | 0.0 | 0.0 | 0.00 | 0.00 | 0.00 | 85 | 1011.0 |
| 20260506202410 | 62 | 248 | 0.0 | 0.0 | 0.00 | 0.00 | 0.00 | 84 | 1011.0 |
| 20260506201908 | 62 | 248 | 0.0 | 0.0 | 0.00 | 0.00 | 0.00 | 84 | 1011.0 |
| 20260506201410 | 62 | 248 | 0.0 | 0.0 | 0.00 | 0.00 | 0.00 | 84 | 1011.0 |
| 20260506200910 | 62 | 248 | 0.0 | 0.0 | 0.00 | 0.00 | 0.00 | 84 | 1011.0 |
| 20260506200410 | 62 | 248 | 0.0 | 0.0 | 0.00 | 0.00 | 0.00 | 84 | 1011.0 |
| 20260506195908 | 62 | 248 | 0.0 | 0.0 | 0.00 | 0.00 | 0.00 | 84 | 1011.0 |
| 20260506195411 | 62 | 248 | 0.0 | 0.0 | 0.00 | 0.00 | 0.00 | 85 | 1011.0 |
| 20260506194910 | 62 | 248 | 0.0 | 0.0 | 0.00 | 0.00 | 0.00 | 84 | 1011.0 |
| 20260506194409 | 62 | 248 | 0.0 | 0.0 | 0.00 | 0.00 | 0.00 | 84 | 1011.0 |
| 20260506193911 | 62 | 248 | 0.0 | 0.0 | 0.00 | 0.00 | 0.00 | 83 | 1011.0 |
| 20260506193411 | 62 | 248 | 0.0 | 0.0 | 0.00 | 0.00 | 0.00 | 83 | 1011.0 |
| 20260506192911 | 62 | 248 | 0.0 | 0.0 | 0.00 | 0.00 | 0.00 | 83 | 1011.0 |
| 20260506192410 | 63 | 248 | 0.0 | 0.0 | 0.00 | 0.00 | 0.00 | 82 | 1011.0 |
| 20260506191909 | 63 | 248 | 1.0 | 1.0 | 0.00 | 0.00 | 0.00 | 82 | 1011.0 |
| 20260506191412 | 63 | 248 | 0.0 | 0.0 | 0.00 | 0.00 | 0.00 | 82 | 1010.0 |
| 20260506190910 | 63 | 248 | 0.0 | 0.0 | 0.00 | 0.00 | 0.00 | 82 | 1010.0 |
| 20260506190409 | 63 | 248 | 0.0 | 0.0 | 0.00 | 0.00 | 0.00 | 81 | 1010.0 |
| 20260506185908 | 63 | 225 | 0.0 | 0.0 | 0.00 | 0.00 | 0.00 | 81 | 1011.0 |
| 20260506185409 | 63 | 248 | 2.0 | 2.0 | 0.00 | 0.00 | 0.00 | 81 | 1011.0 |
| 20260506184909 | 63 | 248 | 3.0 | 3.0 | 0.00 | 0.00 | 0.00 | 80 | 1011.0 |
| 20260506184408 | 64 | 248 | 4.0 | 4.0 | 0.00 | 0.00 | 0.00 | 79 | 1010.0 |
| 20260506183908 | 64 | 248 | 6.0 | 6.0 | 0.00 | 0.00 | 0.00 | 79 | 1010.0 |
| 20260506183411 | 64 | 202 | 5.0 | 6.0 | 0.00 | 0.00 | 0.00 | 78 | 1010.0 |
| 20260506182908 | 64 | 248 | 6.0 | 6.0 | 0.00 | 0.00 | 0.00 | 79 | 1010.0 |
| 20260506182408 | 64 | 248 | 6.0 | 6.0 | 0.00 | 0.00 | 0.00 | 80 | 1010.0 |
| 20260506181909 | 64 | 248 | 5.0 | 6.0 | 0.00 | 0.00 | 0.00 | 79 | 1010.0 |
| 20260506181409 | 64 | 270 | 6.0 | 7.0 | 0.00 | 0.00 | 0.00 | 79 | 1010.0 |
| 20260506180909 | 64 | 225 | 7.0 | 7.0 | 0.00 | 0.00 | 0.00 | 79 | 1010.0 |
| 20260506180409 | 64 | 248 | 7.0 | 7.0 | 0.00 | 0.00 | 0.00 | 79 | 1010.0 |
| 20260506175909 | 64 | 248 | 6.0 | 6.0 | 0.00 | 0.00 | 0.00 | 78 | 1010.0 |
| 20260506175409 | 64 | 225 | 5.0 | 5.0 | 0.00 | 0.00 | 0.00 | 78 | 1010.0 |
| 20260506174908 | 64 | 248 | 8.0 | 8.0 | 0.00 | 0.00 | 0.00 | 77 | 1010.0 |
| 20260506174413 | 64 | 248 | 5.0 | 6.0 | 0.00 | 0.00 | 0.00 | 78 | 1010.0 |
| 20260506173908 | 64 | 248 | 7.0 | 8.0 | 0.00 | 0.00 | 0.00 | 79 | 1010.0 |
| 20260506173409 | 64 | 225 | 6.0 | 7.0 | 0.00 | 0.00 | 0.00 | 80 | 1010.0 |
| 20260506172908 | 64 | 248 | 6.0 | 7.0 | 0.00 | 0.00 | 0.00 | 80 | 1010.0 |
| 20260506172408 | 64 | 225 | 7.0 | 8.0 | 0.00 | 0.00 | 0.00 | 80 | 1010.0 |
| 20260506171910 | 64 | 248 | 8.0 | 9.0 | 0.00 | 0.00 | 0.00 | 79 | 1010.0 |
| 20260506171409 | 65 | 202 | 7.0 | 8.0 | 0.00 | 0.00 | 0.00 | 78 | 1010.0 |
| 20260506170908 | 65 | 270 | 8.0 | 9.0 | 0.00 | 0.00 | 0.00 | 78 | 1010.0 |
| 20260506170409 | 65 | 248 | 5.0 | 6.0 | 0.00 | 0.00 | 0.00 | 78 | 1010.0 |
| 20260506165909 | 65 | 248 | 7.0 | 7.0 | 0.00 | 0.00 | 0.00 | 78 | 1010.0 |
| 20260506165409 | 65 | 248 | 5.0 | 5.0 | 0.00 | 0.00 | 0.00 | 78 | 1010.0 |
| 20260506164908 | 66 | 292 | 9.0 | 11.0 | 0.00 | 0.00 | 0.00 | 77 | 1010.0 |
| 20260506164408 | 66 | 248 | 7.0 | 7.0 | 0.00 | 0.00 | 0.00 | 77 | 1010.0 |
| 20260506163909 | 66 | 248 | 9.0 | 10.0 | 0.00 | 0.00 | 0.00 | 76 | 1010.0 |
| 20260506163409 | 66 | 248 | 9.0 | 10.0 | 0.00 | 0.00 | 0.00 | 75 | 1010.0 |
| 20260506162910 | 66 | 270 | 8.0 | 9.0 | 0.00 | 0.00 | 0.00 | 76 | 1010.0 |
| 20260506162409 | 67 | 202 | 6.0 | 6.0 | 0.00 | 0.00 | 0.00 | 77 | 1010.0 |
| 20260506161908 | 67 | 248 | 5.0 | 5.0 | 0.00 | 0.00 | 0.00 | 76 | 1010.0 |
| 20260506161408 | 67 | 248 | 8.0 | 8.0 | 0.00 | 0.00 | 0.00 | 76 | 1010.0 |
| 20260506160910 | 67 | 225 | 5.0 | 5.0 | 0.00 | 0.00 | 0.00 | 75 | 1010.0 |
| 20260506160410 | 67 | 248 | 9.0 | 9.0 | 0.00 | 0.00 | 0.00 | 75 | 1010.0 |
| 20260506155911 | 67 | 270 | 8.0 | 9.0 | 0.00 | 0.00 | 0.00 | 75 | 1010.0 |
| 20260506155408 | 67 | 202 | 8.0 | 8.0 | 0.00 | 0.00 | 0.00 | 73 | 1010.0 |
| 20260506154908 | 67 | 202 | 7.0 | 7.0 | 0.00 | 0.00 | 0.00 | 73 | 1010.0 |
| 20260506154408 | 66 | 292 | 8.0 | 8.0 | 0.00 | 0.00 | 0.00 | 74 | 1010.0 |
| 20260506153910 | 66 | 202 | 5.0 | 5.0 | 0.00 | 0.00 | 0.00 | 75 | 1010.0 |
| 20260506153410 | 66 | 292 | 6.0 | 6.0 | 0.00 | 0.00 | 0.00 | 75 | 1010.0 |
| 20260506152910 | 66 | 248 | 9.0 | 10.0 | 0.00 | 0.00 | 0.00 | 75 | 1010.0 |
| 20260506152409 | 66 | 248 | 8.0 | 8.0 | 0.00 | 0.00 | 0.00 | 76 | 1010.0 |
| 20260506151908 | 67 | 225 | 4.0 | 5.0 | 0.00 | 0.00 | 0.00 | 75 | 1010.0 |
| 20260506151409 | 68 | 248 | 9.0 | 11.0 | 0.00 | 0.00 | 0.00 | 76 | 1010.0 |
| 20260506150909 | 68 | 270 | 8.0 | 9.0 | 0.00 | 0.00 | 0.00 | 74 | 1010.0 |